Simultaneous Nadir Overpasses (SNOs) Predictions

Prediction of SNOs between AQUA and METOP-B Satellite Orbit:

Table of predicted SNOs for the next 14.0 days since TLE Epoch: 3/9/2018
Index Date (AQUA) Time (AQUA) Lat,Lon (AQUA) SZA (AQUA ) Date (METOP-B) Time (METOP-B) Lat,Lon (METOP-B) SZA (METOP-B ) Distance(km) Time Diff (sec)
1 03/10/2018 04:42:38 73.87, 103.64 78.08 03/10/2018 04:41:30 73.84, 103.73 78.07 3.50 68
2 03/10/2018 05:32:05 -73.91, -88.81 101.89 03/10/2018 05:32:10 -73.91, -88.79 101.89 0.89 5
3 03/10/2018 06:21:35 74.07, 78.47 78.27 03/10/2018 06:22:47 74.07, 78.94 78.24 14.26 72
4 03/13/2018 00:16:55 73.84, 170.12 76.94 03/13/2018 00:15:52 73.83, 170.09 76.94 2.16 63
5 03/13/2018 01:06:22 -73.88, -22.32 103.04 03/13/2018 01:06:32 -73.89, -22.42 103.02 3.20 10
6 03/13/2018 01:55:55 74.20, 144.59 77.30 03/13/2018 01:57:06 74.20, 145.67 77.25 32.49 71
7 03/15/2018 19:51:12 73.83,-123.42 75.81 03/15/2018 19:50:13 73.86,-123.43 75.85 2.91 59
8 03/15/2018 20:40:40 -73.92, 44.03 104.12 03/15/2018 20:40:53 -73.93, 44.07 104.11 1.63 13
9 03/15/2018 21:30:16 74.39,-149.43 76.39 03/15/2018 21:31:24 74.38,-147.48 76.29 58.54 68
10 03/18/2018 15:25:28 73.83, -56.98 74.68 03/18/2018 15:24:34 73.84, -57.08 74.71 3.24 54
11 03/18/2018 16:14:56 -73.91, 110.48 105.24 03/18/2018 16:15:14 -73.91, 110.43 105.24 1.43 18
12 03/18/2018 17:04:35 74.54, -83.36 75.43 03/18/2018 17:05:41 74.55, -80.61 75.33 81.47 66
13 03/21/2018 10:59:46 73.88, 9.33 73.63 03/21/2018 10:58:55 73.86, 9.40 73.61 3.07 51
14 03/21/2018 11:49:13 -73.91, 176.90 106.36 03/21/2018 11:49:35 -73.94, 176.91 106.34 3.05 22




NCC Satellite Simultaneous Nadir Overpasses (SNOs) Prediction Service
